Theta_e
322 325 325 326 329 342 353 351 349 349 351 353 354 357 356 354 355 355 353 350 348 352 354 353 352 351 351 349 346 344 343 342 342 342 342 343 344 343 343 343 343 344 344 345 346 346 346 346 346 345 345 346 347 346 343 341 342 342 342 341 342 343 342 341 341 340 338 337 336 336 336 336 336 336 336 337 338 339 340 341 342 343 343 342 340 338
324 326 327 329 326 331 345 350 346 339 344 354 356 357 356 355 356 354 353 350 349 351 351 352 353 351 349 348 347 346 345 343 341 341 342 342 343 343 343 343 343 344 343 344 345 345 346 346 346 345 345 345 347 347 343 341 341 341 341 341 342 343 342 341 341 341 339 337 336 335 336 336 336 336 336 338 340 341 341 342 342 343 342 341 341 339
325 326 328 327 322 321 328 335 336 332 338 352 356 356 355 355 355 354 353 350 351 354 351 350 353 351 349 348 348 347 348 345 341 341 341 342 342 342 342 342 342 343 343 343 343 344 345 345 345 345 344 345 346 347 345 342 340 340 341 341 342 343 342 341 341 341 340 338 337 337 337 338 338 338 339 340 341 341 341 342 343 343 341 340 341 340
325 326 324 321 318 320 322 322 325 325 335 353 355 354 355 353 353 355 354 350 350 353 351 350 350 350 350 348 348 348 347 347 344 342 342 341 342 342 342 343 342 342 342 342 342 344 345 344 345 345 344 345 346 347 347 345 341 340 341 342 341 343 343 341 341 341 341 340 340 339 339 340 340 341 341 341 341 340 340 341 343 344 342 341 342 341
325 323 319 318 320 322 322 321 322 321 330 349 352 351 355 354 353 355 353 349 350 350 349 350 350 350 350 348 350 349 348 350 349 347 345 341 341 342 342 342 341 342 342 342 342 343 344 344 345 344 344 345 346 347 347 347 343 340 341 341 341 343 343 341 342 343 342 342 342 342 342 342 343 343 342 340 340 339 339 340 342 344 344 342 342 343
324 321 318 320 322 321 320 321 323 319 325 339 346 348 353 353 356 356 351 349 351 351 349 350 350 350 350 349 350 351 351 353 352 350 348 343 341 340 340 340 340 341 342 342 342 343 344 344 345 344 344 345 346 346 347 347 345 342 340 341 341 343 344 342 342 343 343 343 344 343 343 344 344 343 341 339 338 338 339 339 341 343 345 344 343 344
322 320 319 321 322 320 319 320 321 321 326 331 336 345 350 352 356 355 351 350 350 351 350 350 349 348 350 349 349 351 353 354 353 352 349 344 341 340 339 339 339 339 340 341 341 341 343 344 344 344 344 345 346 346 347 347 346 344 341 340 339 341 343 343 342 343 344 345 344 343 342 343 344 343 341 339 338 337 338 339 340 341 343 344 344 344
320 319 319 320 320 320 319 318 321 324 325 325 330 344 351 354 356 353 352 353 352 353 351 351 350 348 349 350 348 349 352 353 354 354 351 345 341 340 339 339 339 339 340 340 341 342 342 343 343 343 343 344 345 346 347 348 347 346 343 340 338 339 342 343 342 343 344 345 345 344 342 342 343 343 342 340 339 338 338 338 339 340 341 342 343 343
318 319 320 321 320 320 319 320 323 320 322 330 338 345 349 352 353 352 352 354 354 352 350 350 351 349 350 352 349 349 351 353 353 353 352 348 342 340 339 339 338 339 339 340 341 341 341 341 341 341 343 344 345 346 347 347 346 346 345 342 339 338 340 342 342 342 342 343 344 344 344 342 342 343 343 342 341 340 338 338 339 339 339 340 342 342
320 319 320 319 319 320 320 320 322 322 326 339 344 343 343 344 346 347 350 352 352 351 349 349 350 349 351 353 351 350 350 351 352 351 351 349 344 341 339 339 338 338 339 340 340 340 340 340 339 340 343 344 345 346 347 347 346 345 346 344 340 338 339 340 341 340 341 342 342 344 344 343 342 343 343 343 343 342 340 338 338 338 338 339 340 340
320 319 319 319 320 319 321 323 324 329 337 343 344 342 342 342 343 346 348 349 350 349 348 348 349 348 350 352 351 350 350 349 349 351 351 349 347 342 340 339 339 338 339 339 339 339 339 339 340 341 343 345 345 346 347 347 346 345 346 345 343 340 338 339 340 339 339 340 342 343 343 343 342 343 344 343 343 342 340 338 338 338 338 338 339 340
319 319 320 321 321 316 325 337 331 330 340 346 347 345 344 345 346 348 347 347 347 348 348 349 350 349 348 350 351 349 348 347 349 350 351 350 348 345 341 339 339 338 339 339 339 340 340 341 342 343 344 345 346 346 347 347 345 344 345 345 344 342 339 339 339 339 339 340 341 343 343 343 343 343 343 343 343 343 341 338 338 338 338 338 338 339
323 322 319 320 321 317 330 349 343 336 343 348 348 346 346 346 346 347 346 345 346 347 349 351 351 349 348 349 352 351 349 348 349 348 349 349 348 347 343 340 339 339 339 339 339 340 341 341 341 343 344 346 346 346 347 347 345 344 344 345 344 343 340 340 339 339 338 339 340 342 343 343 343 342 343 343 343 343 342 339 337 338 338 338 338 338
325 324 319 318 320 320 328 341 343 345 348 346 344 344 348 349 347 348 347 344 346 346 348 350 350 349 349 350 352 351 348 347 347 347 347 348 348 347 345 342 340 339 339 339 339 340 340 340 340 342 344 345 345 346 347 347 346 344 343 343 343 343 342 340 340 339 339 339 339 341 342 343 343 342 343 343 343 342 341 339 337 338 339 338 339 339
322 322 323 320 318 323 329 334 339 347 348 346 346 344 345 348 349 350 348 345 347 347 348 349 349 350 352 355 355 350 346 345 346 347 347 348 349 348 346 344 340 339 340 340 340 340 339 339 340 342 344 344 345 346 347 347 347 346 343 342 342 343 343 341 340 340 340 339 339 341 343 343 343 343 343 343 343 342 340 338 337 338 339 339 340 341
318 321 326 321 318 323 330 336 339 345 347 345 344 343 342 347 350 347 344 345 347 348 349 348 349 353 355 356 356 352 349 347 345 347 347 347 349 348 348 346 341 339 340 340 341 340 340 340 341 342 344 344 345 346 346 346 348 347 344 342 341 342 343 342 341 341 341 341 341 342 343 344 344 343 343 344 344 343 341 339 339 340 341 340 340 341
318 323 327 322 322 322 328 339 341 342 347 344 340 341 341 346 352 347 344 346 344 343 345 346 350 354 350 350 355 356 356 352 347 347 347 347 348 348 348 347 343 340 340 340 341 340 340 340 341 343 343 344 345 345 346 346 347 348 346 342 340 341 342 342 342 342 342 342 342 342 343 343 344 343 343 343 344 343 342 341 341 342 343 343 342 342
319 321 326 325 324 321 326 338 338 334 340 343 343 341 336 338 346 347 346 346 342 341 344 346 351 352 347 349 356 359 359 355 349 348 347 347 348 348 348 348 345 342 340 340 341 340 341 341 342 343 343 344 345 345 345 346 348 349 347 342 340 341 342 342 342 342 342 343 343 343 343 343 343 343 343 343 342 343 342 342 342 343 343 344 343 342
321 320 326 328 323 323 329 340 340 335 332 335 339 339 336 338 338 339 342 344 343 344 345 344 346 348 346 350 359 360 358 356 350 349 348 347 348 347 348 348 347 344 341 340 342 343 343 342 342 343 344 344 345 345 345 346 348 349 347 343 340 341 342 342 342 342 342 342 343 342 342 342 343 343 343 342 342 341 341 342 342 342 343 344 343 342
323 320 325 328 324 323 330 339 341 338 330 327 331 331 333 340 340 340 341 340 340 343 344 340 341 348 349 352 362 362 355 354 350 350 350 347 348 348 347 347 347 345 343 341 342 343 343 343 343 343 343 344 345 345 345 346 348 350 348 344 341 341 342 343 343 343 342 342 342 342 341 342 342 343 343 342 341 341 341 341 342 342 342 343 342 341
325 322 323 329 327 325 330 336 336 335 329 325 325 323 324 330 335 339 339 336 339 343 345 338 337 351 356 351 358 359 352 352 350 349 350 347 348 349 347 347 347 346 345 342 342 342 343 344 344 344 344 344 345 345 345 347 349 350 349 345 342 342 342 343 343 343 343 343 342 341 340 341 341 342 343 342 342 343 344 343 342 342 343 342 342 341
325 327 328 328 323 323 329 331 329 330 327 324 326 326 325 327 333 338 336 335 340 342 344 338 335 350 355 347 352 356 352 352 349 348 349 348 348 349 348 347 346 346 346 343 343 342 342 345 345 345 345 345 346 345 345 348 349 350 350 346 344 343 342 342 342 343 343 343 342 341 341 341 341 341 342 343 343 345 346 344 343 343 343 342 341 341
328 333 332 329 325 324 326 325 322 321 322 326 329 328 328 330 337 341 336 335 338 337 340 338 335 344 347 345 352 353 349 350 348 347 348 348 349 349 348 348 346 346 346 344 344 343 342 344 345 346 346 345 346 345 345 348 349 350 350 347 347 347 346 344 342 343 343 343 343 342 341 341 341 340 341 343 345 346 346 345 345 345 343 341 341 341
333 333 328 333 342 338 330 328 324 322 325 329 327 327 328 328 332 339 341 343 342 340 342 337 336 343 345 343 348 347 346 349 348 348 349 348 349 349 348 348 346 346 346 345 344 344 344 345 346 347 347 346 345 346 347 348 349 350 350 349 348 349 349 347 344 343 343 343 343 343 342 342 341 341 342 344 345 345 345 345 345 345 343 341 340 341
330 332 330 337 344 340 332 331 330 328 330 329 328 332 335 331 328 331 338 341 338 340 344 337 338 346 345 342 346 348 349 350 348 349 350 348 349 349 348 347 346 346 346 345 345 345 345 347 348 348 347 347 346 345 347 348 349 351 350 350 349 349 350 350 347 344 342 342 343 342 343 343 342 342 343 345 345 344 345 345 345 344 342 341 341 341
328 333 339 341 338 333 330 329 327 326 330 335 338 340 342 341 333 326 331 334 331 335 340 339 343 350 348 347 349 350 352 353 349 349 350 349 349 349 348 347 347 347 346 346 346 346 346 347 348 348 347 347 346 346 348 349 349 350 350 350 350 349 350 350 350 346 343 342 343 342 343 344 343 343 344 345 345 345 345 345 344 344 344 343 343 343
336 334 339 343 336 331 331 331 332 333 337 342 342 341 343 343 337 332 332 332 333 337 340 345 348 345 347 350 350 348 350 352 350 349 350 350 349 348 348 347 347 347 346 346 347 347 348 348 348 349 348 348 347 347 348 349 349 350 350 349 349 348 349 350 351 349 345 343 342 342 343 344 344 345 345 345 345 345 345 346 346 346 346 346 346 346
343 335 333 339 334 327 328 331 336 339 338 338 339 341 344 342 344 346 338 331 332 331 332 342 344 340 344 349 348 349 349 350 350 349 349 350 349 348 348 347 347 348 347 346 347 348 349 349 349 349 349 349 349 349 349 350 350 350 350 350 349 348 349 349 349 349 347 345 344 342 342 343 344 345 345 345 345 345 345 346 347 347 347 348 349 349
343 338 333 336 333 328 329 333 337 338 334 334 337 341 342 342 346 351 345 338 336 330 328 338 344 346 348 348 348 348 347 348 349 349 349 350 349 348 347 346 347 348 347 346 346 347 348 349 349 349 349 350 350 350 350 350 350 350 350 350 349 349 348 348 348 348 348 347 345 343 342 342 344 345 345 345 345 345 346 346 347 348 348 349 350 350
336 339 334 336 333 326 328 333 336 337 335 333 334 337 341 343 342 344 344 344 342 340 340 342 346 351 350 347 347 347 345 348 349 349 350 350 349 348 347 346 346 346 346 346 345 346 347 347 349 349 349 349 349 350 350 350 350 350 350 350 350 350 349 347 347 348 348 347 346 345 343 342 343 344 344 345 345 345 345 346 348 349 349 350 350 351
329 330 333 341 338 331 331 332 333 336 336 335 332 333 340 343 342 343 344 343 345 345 344 344 349 353 349 346 347 346 346 348 349 349 351 349 349 348 347 347 346 345 345 345 344 346 346 346 347 347 347 348 348 349 349 349 350 350 350 350 349 348 348 348 347 347 347 347 346 346 345 343 343 344 344 344 344 345 345 346 348 350 351 352 352 351
332 328 331 338 335 333 335 331 333 339 337 338 336 333 338 344 343 343 343 343 345 346 344 347 351 351 348 346 348 347 347 348 348 349 350 349 350 349 347 347 348 346 346 346 345 346 346 346 346 345 345 346 347 348 348 348 349 349 349 350 349 347 348 347 346 346 347 347 346 346 346 344 344 344 343 343 344 346 346 347 348 350 351 352 352 353
334 329 327 330 329 333 336 333 339 342 333 337 339 332 336 344 342 340 343 342 342 344 346 350 350 347 347 347 348 348 347 347 348 348 349 349 350 350 348 348 348 348 348 347 347 346 346 346 346 345 345 345 345 346 346 347 348 347 347 348 348 347 347 347 347 346 348 348 345 344 346 347 345 344 343 344 346 348 350 350 351 351 352 352 352 353
339 335 331 334 331 329 335 335 335 333 329 335 340 334 336 342 341 342 343 340 341 344 346 348 348 346 347 347 347 348 346 345 346 347 348 349 349 350 349 347 347 348 348 348 348 348 347 347 347 346 346 345 345 345 344 345 346 347 347 347 348 348 348 349 349 348 348 349 346 343 345 347 347 347 348 347 348 350 351 352 352 352 352 352 352 352
345 338 333 338 334 329 337 337 328 328 334 338 337 334 335 339 339 341 341 338 340 342 344 347 348 346 346 346 345 345 344 345 347 347 348 348 348 348 347 345 346 347 347 348 348 348 348 348 348 347 347 346 345 345 344 344 345 347 348 347 347 348 349 350 350 350 349 349 348 345 343 344 346 349 351 351 350 351 352 352 352 352 352 351 351 350
338 337 332 334 329 325 332 332 326 330 338 338 335 333 334 337 338 340 342 340 339 340 343 347 346 344 343 343 343 344 345 345 345 344 345 345 346 347 347 346 345 345 346 347 348 348 348 348 348 348 347 346 346 345 345 344 344 346 347 346 345 345 348 349 349 349 350 351 351 349 347 345 346 349 352 353 352 351 351 350 350 350 351 350 349 349
329 336 332 325 322 327 334 333 332 335 335 335 335 331 330 333 333 336 343 344 339 337 341 344 344 342 341 341 343 343 342 343 342 341 340 341 342 344 345 346 346 345 345 347 347 346 346 347 348 349 348 347 346 345 345 344 343 344 345 345 345 346 347 349 350 350 351 352 352 350 349 348 348 348 351 352 352 351 350 350 349 348 347 348 348 348
323 327 330 323 321 333 343 340 337 339 338 338 336 330 328 331 330 330 339 345 340 335 338 341 342 341 340 341 342 340 341 348 348 341 338 339 339 339 341 342 343 345 345 345 346 346 345 346 347 348 348 349 347 346 345 345 345 346 347 347 348 347 348 349 350 350 349 349 348 348 348 349 347 346 348 350 351 351 350 350 349 346 345 346 347 348
328 330 337 332 326 334 344 342 339 340 339 340 338 332 330 332 331 329 336 345 341 335 336 339 340 340 340 341 339 338 345 355 352 341 337 339 338 338 339 339 340 342 344 344 346 346 346 345 345 346 348 349 348 347 346 347 348 347 346 345 345 346 348 349 349 348 347 346 346 347 348 348 347 346 346 348 351 352 351 351 349 347 346 347 347 348
342 341 338 334 333 339 343 339 335 336 335 335 336 334 331 331 331 333 338 342 339 334 335 338 338 339 340 339 338 339 343 348 346 340 338 337 337 337 339 339 339 339 341 343 345 346 347 346 345 346 347 347 348 348 348 348 348 346 343 342 343 345 347 347 346 345 345 346 345 345 346 346 346 345 344 346 349 351 351 350 349 348 347 347 348 348
343 341 335 334 338 342 343 338 332 333 335 333 333 334 331 329 331 338 341 339 336 334 335 337 338 339 339 337 338 339 339 339 339 339 338 337 337 338 338 339 340 339 340 342 343 345 346 345 344 345 346 346 347 348 348 347 346 345 344 344 346 346 345 345 344 343 345 346 345 346 346 346 346 346 345 347 349 350 350 350 350 350 349 348 349 349
333 332 332 335 334 334 341 341 333 329 331 332 332 333 329 328 334 340 339 336 336 336 335 335 337 338 338 337 337 338 338 338 337 337 337 337 337 338 339 339 340 340 340 341 342 343 344 344 344 344 344 344 345 345 346 347 347 346 347 346 345 345 345 344 345 345 347 347 347 347 348 348 348 348 348 349 349 349 349 350 350 350 350 349 349 349
327 329 332 334 331 331 337 337 330 328 330 331 333 332 330 331 336 338 336 336 337 337 335 335 336 336 336 337 337 338 338 337 335 335 335 336 336 336 336 337 338 338 338 339 340 341 342 342 343 343 342 342 342 342 344 345 346 347 347 346 346 346 346 347 347 348 349 349 349 349 349 350 350 349 349 349 348 348 348 349 349 350 350 350 350 350
327 331 336 335 332 335 340 337 333 332 332 332 333 333 333 334 335 336 337 337 336 335 334 334 335 335 335 336 338 339 336 334 333 333 334 334 333 332 332 332 332 332 333 335 338 339 340 341 341 341 341 340 341 342 342 343 344 345 346 345 345 345 346 347 348 349 349 349 349 349 349 349 348 347 346 345 345 346 346 346 347 348 348 349 349 349
326 327 331 332 330 331 336 336 333 331 332 334 335 334 335 336 336 337 338 336 335 335 334 334 334 334 335 337 339 337 334 333 333 332 332 331 330 328 328 327 327 326 328 332 337 338 338 339 340 339 340 339 340 341 341 342 343 343 343 342 342 343 345 346 346 347 347 347 346 346 346 345 344 344 343 342 342 344 345 345 344 344 344 344 345 344
327 324 328 332 331 329 330 330 330 332 334 336 336 336 336 336 336 337 337 336 336 336 335 335 335 335 336 338 339 336 333 333 332 331 331 330 328 327 326 326 325 324 323 327 334 336 336 337 338 338 338 338 338 339 340 341 341 341 341 340 339 340 342 343 343 344 344 344 343 343 343 343 342 342 342 341 341 342 343 343 342 342 342 341 341 341
328 326 331 334 333 334 336 331 329 332 335 335 335 336 335 335 335 335 336 336 336 336 336 336 335 335 337 338 337 335 333 332 331 330 329 328 327 326 326 326 326 323 319 319 323 327 330 332 333 334 334 335 336 337 337 338 338 338 337 338 338 338 340 341 342 342 342 342 341 340 339 339 339 339 339 339 340 340 340 340 339 338 337 337 336 336
327 327 333 336 334 335 336 331 328 331 334 333 334 335 334 334 334 334 335 336 336 336 336 336 335 336 337 337 336 335 333 331 330 330 328 326 326 327 326 326 325 320 315 313 314 317 319 322 324 326 326 328 331 334 334 334 333 333 332 332 333 334 336 338 339 339 338 337 336 335 334 333 333 333 333 333 333 334 334 333 332 331 331 331 330 330
327 329 331 332 333 333 331 329 328 331 333 333 333 335 334 334 335 336 336 336 336 336 335 335 335 336 335 335 336 335 333 332 330 329 326 325 326 326 327 326 321 315 311 310 310 311 312 313 315 317 317 319 323 328 331 331 330 329 329 329 328 329 330 331 332 332 332 331 330 329 328 328 327 326 326 327 327 327 328 327 327 328 328 329 329 329
329 332 329 331 339 339 335 332 330 332 335 334 332 334 334 334 335 336 336 336 335 335 335 335 335 334 334 334 334 333 332 331 328 327 326 325 326 327 327 324 317 312 312 312 310 309 309 309 309 310 311 312 314 319 324 327 327 327 327 327 327 327 327 327 327 327 327 327 327 327 327 328 327 326 325 326 326 325 326 326 327 327 327 328 329 329
329 331 330 336 342 339 333 331 329 330 334 333 332 333 333 333 335 336 336 335 334 333 334 334 334 333 333 333 332 331 329 327 325 325 325 326 327 327 324 320 315 313 313 313 312 311 310 309 309 308 309 309 310 311 314 317 319 320 320 321 322 322 322 324 325 324 322 321 322 322 323 326 329 330 329 328 328 326 324 324 326 326 326 327 327 328
Wind_Speed
5 3 1 4 6 7 8 8 5 3 5 6 4 3 2 2 2 2 2 2 1 4 1 4 7 5 7 7 5 6 9 11 12 16 20 23 25 26 25 25 26 27 27 25 24 25 24 22 21 19 16 14 14 13 12 12 11 12 13 14 15 16 15 15 15 15 16 16 16 16 16 15 14 14 13 13 12 11 10 10 8 7 6 6 7 7
4 4 5 7 8 7 8 8 5 3 5 5 4 4 2 1 2 2 2 1 1 4 1 2 7 5 6 7 4 4 6 10 14 16 19 23 24 25 26 26 27 28 27 25 25 26 26 25 23 21 19 16 15 15 14 13 12 12 13 14 16 17 17 15 14 14 15 15 15 15 15 14 14 13 13 11 11 10 10 9 8 8 7 7 8 9
2 3 8 7 5 2 1 4 4 3 4 4 3 4 1 1 3 1 2 2 2 3 2 2 4 3 2 5 6 5 5 10 18 18 19 24 25 25 27 27 28 28 27 26 25 27 28 27 25 23 21 18 16 16 15 14 13 13 13 14 16 17 17 16 14 14 14 14 14 14 13 13 12 12 11 10 9 9 10 9 8 7 7 8 9 10
1 4 5 4 4 4 1 1 3 2 2 3 3 3 2 3 3 1 2 4 3 3 4 3 3 3 1 3 6 8 8 9 16 19 19 23 26 29 31 30 30 29 28 27 27 28 29 28 26 24 22 20 18 17 16 15 14 14 14 14 15 16 16 16 15 14 14 15 15 14 13 12 11 11 11 11 10 10 10 9 8 7 8 9 9 9
4 5 2 4 5 5 1 1 3 4 2 2 4 4 3 5 4 1 3 4 4 4 4 6 3 2 2 5 7 9 9 9 13 17 19 23 27 29 30 30 31 32 31 30 29 29 29 29 28 25 23 22 20 19 17 16 15 14 14 14 14 14 15 16 16 16 16 16 17 16 15 14 13 12 12 12 12 11 11 10 8 7 8 9 9 8
5 6 3 5 3 3 4 2 3 5 2 3 4 7 7 9 6 6 8 5 2 1 2 5 2 2 4 8 9 7 7 8 10 13 18 24 26 26 26 27 29 31 32 31 31 31 31 30 29 26 24 24 21 19 18 16 14 14 14 14 14 14 15 16 17 17 17 17 18 17 17 15 15 14 14 13 12 11 10 10 9 8 8 8 8 7
3 3 4 5 4 4 3 3 4 5 3 3 4 7 8 8 7 9 10 5 1 1 3 4 2 1 2 8 11 8 7 9 9 9 15 23 26 26 27 27 29 31 31 32 31 32 32 31 29 27 26 25 22 20 18 17 15 14 14 15 15 14 14 15 17 18 18 17 17 17 16 15 15 14 13 12 11 10 10 10 9 8 8 8 8 8
2 1 1 3 4 4 3 4 4 5 5 3 5 6 10 9 9 11 9 4 2 2 1 3 2 0 2 7 11 10 8 9 10 9 11 19 26 28 28 28 30 32 33 33 33 33 32 30 29 28 27 25 22 20 19 18 17 15 14 15 16 15 15 15 16 17 18 18 18 17 15 14 14 13 12 12 11 10 10 10 9 8 8 8 9 9
2 2 3 4 3 4 5 5 7 8 5 2 1 7 8 8 8 7 5 2 1 3 1 4 3 1 3 4 8 10 9 11 13 12 11 16 25 28 28 29 31 33 34 34 34 34 32 30 28 28 27 26 23 20 18 18 18 15 15 16 17 17 17 16 16 17 18 18 17 16 15 15 13 12 11 11 11 11 11 10 10 9 9 9 10 11
3 6 7 6 4 5 6 5 6 7 2 4 11 13 9 9 8 5 3 2 3 2 2 5 6 3 3 2 5 8 11 13 13 11 11 16 24 28 28 30 32 34 35 35 34 33 31 29 27 27 28 27 24 20 18 18 18 16 16 16 17 18 18 18 18 18 18 18 16 15 15 14 13 12 11 11 11 11 11 10 10 10 10 9 10 10
6 6 5 4 6 7 4 2 3 6 5 8 13 11 9 8 5 4 3 3 2 1 3 5 8 5 2 3 6 9 12 13 11 9 10 15 22 27 28 30 33 35 36 36 35 34 32 30 29 29 30 28 24 21 19 19 18 17 17 17 17 17 18 18 18 18 19 18 17 15 14 13 13 12 12 12 12 12 12 11 11 11 10 10 10 9
5 3 2 5 13 9 5 3 1 7 9 7 6 6 6 4 3 3 3 2 1 4 3 2 7 7 3 4 6 9 12 13 13 12 11 14 20 27 29 31 34 36 37 37 37 35 34 33 32 32 31 30 26 23 21 20 19 18 18 18 18 18 18 18 17 18 19 19 18 16 15 13 12 12 11 12 12 12 12 12 11 12 11 11 10 9
3 4 3 4 10 10 8 4 3 5 5 4 5 5 5 2 2 2 1 0 2 5 2 3 5 5 6 6 5 8 9 11 15 17 18 19 23 28 30 31 34 36 37 37 37 36 36 35 34 33 33 31 27 24 23 21 20 19 19 19 19 18 18 18 18 18 19 20 19 18 17 15 13 12 11 11 12 12 11 11 12 12 12 11 10 9
3 5 2 0 3 11 12 5 3 3 4 5 6 5 4 3 2 0 2 1 3 4 1 5 4 2 4 5 6 9 11 16 20 23 26 26 28 31 32 33 34 36 37 38 38 37 36 36 35 34 33 31 28 25 24 22 21 20 20 20 20 19 19 19 19 18 18 19 19 19 18 16 14 13 12 11 11 12 12 11 12 11 11 10 9 8
1 5 3 3 2 9 12 9 11 8 5 5 3 4 5 4 4 3 3 2 2 1 2 5 3 3 3 3 4 5 9 18 23 24 25 26 29 31 31 32 34 36 37 38 39 38 38 37 36 35 34 32 29 26 25 24 22 21 21 21 21 20 20 20 20 19 19 19 20 19 18 17 15 14 12 11 11 12 12 12 12 11 11 10 9 8
2 5 7 4 3 9 9 10 14 10 4 2 1 4 3 4 4 3 3 3 3 2 2 3 3 4 3 4 4 1 2 11 19 22 23 23 26 28 27 30 34 36 37 38 39 39 39 38 37 37 35 33 31 28 26 25 23 22 22 21 21 21 21 21 21 21 19 19 19 19 18 17 16 15 13 12 11 12 13 13 13 12 11 10 9 8
1 5 7 4 1 6 10 12 12 8 5 2 1 3 2 3 6 4 0 1 3 2 1 2 3 4 2 4 3 3 1 4 11 17 21 24 27 28 28 30 34 37 38 38 40 40 40 40 39 38 36 34 32 29 27 25 23 23 22 22 22 21 22 22 22 21 20 20 20 19 18 18 17 16 14 13 11 11 12 13 12 12 11 10 9 8
2 3 7 3 3 4 8 13 7 3 7 5 2 5 3 3 4 5 1 3 2 1 2 2 3 4 1 3 2 2 4 6 8 12 17 22 26 28 30 32 34 37 39 39 40 40 40 40 40 39 37 35 33 29 26 24 23 23 22 22 22 22 23 22 22 22 21 21 20 20 19 18 18 16 15 14 12 12 12 12 12 11 11 10 9 9
3 1 7 4 1 4 4 10 4 4 3 3 3 5 4 3 1 3 3 1 1 1 3 2 3 3 4 4 2 4 8 9 9 10 12 17 23 27 30 32 33 35 38 39 39 39 40 41 41 40 38 36 34 30 27 24 23 23 22 23 22 22 22 22 22 22 22 22 21 20 20 19 18 17 16 15 14 13 13 12 12 11 11 10 10 10
2 2 5 4 2 3 3 4 3 1 4 4 0 2 1 2 3 3 3 3 3 2 2 2 2 3 5 5 5 9 11 10 10 10 11 16 23 28 30 33 34 35 37 39 40 40 41 41 41 40 38 36 34 31 28 26 24 23 22 22 22 22 22 22 22 22 22 22 22 21 21 20 20 19 17 16 15 15 14 13 13 12 12 12 12 13
1 2 2 5 5 2 1 1 5 5 3 2 2 3 2 1 2 3 2 2 3 3 2 0 2 5 5 3 4 7 8 9 11 11 11 16 23 27 30 33 35 35 36 38 40 40 41 41 41 40 38 36 34 32 29 27 24 23 21 21 22 22 22 22 22 23 23 23 23 22 22 21 21 20 19 18 17 16 15 14 14 14 13 14 15 15
1 2 1 3 3 1 4 3 4 5 6 5 3 4 4 2 3 3 1 2 2 3 3 3 2 6 4 1 2 4 3 5 9 10 10 15 22 25 28 31 34 35 36 37 38 39 41 41 41 41 39 38 36 34 31 27 25 23 22 20 21 21 21 22 22 22 23 23 23 23 22 22 21 21 20 19 18 17 16 16 16 15 16 16 17 17
2 3 3 2 3 3 6 4 1 4 6 5 3 3 3 2 4 5 2 3 1 1 1 2 1 5 4 2 3 4 3 2 7 9 10 13 18 22 25 27 30 33 35 36 37 38 39 40 40 41 40 39 38 35 32 28 26 24 22 21 21 21 20 20 21 21 22 22 23 23 23 22 22 21 20 19 19 18 17 17 17 17 18 17 17 16
2 3 3 2 5 4 5 5 2 2 3 3 1 2 2 1 2 5 4 3 3 2 1 2 1 4 4 4 4 4 3 2 5 8 10 11 14 17 21 23 26 30 32 34 36 37 38 39 39 40 40 40 39 36 32 29 27 26 24 22 21 21 20 20 20 21 21 21 22 23 23 22 22 21 20 20 19 19 17 17 18 18 18 17 16 16
1 1 3 2 4 5 5 6 5 4 3 2 2 3 2 1 2 3 2 3 2 3 4 3 2 5 4 4 5 6 4 4 4 6 9 11 13 16 18 21 24 27 30 32 34 36 37 38 39 39 40 40 39 37 33 30 28 27 27 25 23 21 20 20 20 21 21 21 21 22 22 22 22 22 21 20 20 19 18 18 18 17 16 16 15 15
2 2 3 4 2 1 0 1 2 3 4 2 3 5 5 3 2 3 2 3 1 3 3 4 4 5 4 4 5 6 5 4 5 5 8 10 13 16 18 20 23 26 28 31 34 36 37 38 38 39 40 40 39 37 34 32 30 28 27 26 25 24 23 22 21 21 21 21 21 22 22 22 22 21 21 20 20 19 18 18 18 17 16 15 15 15
4 2 3 6 5 4 4 4 4 1 2 3 5 7 6 5 2 3 4 3 3 3 2 4 3 1 5 5 4 5 5 4 4 5 7 9 12 15 18 21 24 26 28 31 33 35 36 36 38 38 39 39 39 37 35 33 31 29 28 27 26 24 23 23 23 23 23 22 22 22 23 22 21 21 21 20 20 19 19 18 18 17 16 15 15 15
4 3 3 6 5 1 4 4 4 3 5 4 5 7 8 8 6 6 4 1 2 3 2 6 3 3 5 5 3 3 4 3 3 4 7 10 13 15 18 21 22 23 25 27 31 34 35 36 36 36 36 37 37 37 36 34 32 30 29 28 27 25 23 22 22 23 24 24 23 23 23 23 21 21 21 20 20 19 19 19 18 17 16 16 15 15
6 2 1 4 4 4 2 2 4 3 3 5 7 8 8 10 10 7 2 4 2 3 4 6 3 4 4 5 3 2 2 3 4 5 6 10 13 15 17 19 20 20 20 22 25 28 31 34 34 34 33 34 35 36 36 35 33 32 30 29 27 25 24 22 21 21 23 25 25 24 23 23 22 21 21 21 20 20 19 19 18 18 17 16 16 15
4 1 2 4 5 4 3 3 3 3 1 5 8 8 7 8 9 7 4 5 3 3 2 1 6 7 4 3 3 4 5 7 8 8 6 8 12 14 15 17 19 20 21 23 25 25 25 27 29 31 29 28 30 33 33 32 33 33 31 29 28 26 25 23 21 20 21 23 25 25 24 24 23 22 21 21 21 20 20 19 19 19 18 17 16 15
3 1 1 4 5 3 5 2 2 3 2 4 8 8 6 6 7 8 7 6 4 2 3 4 7 6 4 5 7 8 9 10 10 9 7 6 9 13 14 14 16 18 20 23 26 26 24 23 24 28 28 27 27 29 29 30 32 31 30 29 28 27 25 24 22 21 21 22 24 26 26 25 24 23 23 22 21 21 20 20 20 20 19 17 16 15
3 2 1 4 4 2 5 6 5 3 3 5 8 9 8 6 5 6 7 7 5 4 5 5 5 2 3 6 10 10 11 11 10 9 8 6 6 9 12 13 12 14 16 19 23 26 26 26 26 28 30 28 26 26 27 29 30 29 28 29 29 27 25 25 25 23 21 22 24 26 27 26 25 25 24 23 22 21 21 20 20 20 20 18 17 16
2 4 2 3 4 4 4 5 5 4 5 4 4 3 4 3 3 3 6 8 7 4 2 2 2 1 1 5 7 7 7 8 8 8 6 5 5 5 7 9 9 11 15 18 20 22 24 25 25 27 29 30 30 29 27 27 28 29 28 28 28 27 26 26 25 23 22 22 23 25 26 26 27 26 25 25 24 22 21 20 20 20 20 19 18 17
3 4 2 2 3 4 4 4 3 3 2 3 4 3 1 4 5 5 4 6 7 5 3 3 3 4 4 5 5 5 7 8 10 10 7 5 5 5 4 2 5 10 13 15 16 18 20 21 22 23 25 28 31 31 28 27 27 28 29 28 28 28 28 28 26 24 23 22 22 23 25 27 28 28 27 26 25 23 22 21 20 19 19 19 19 18
4 4 1 2 3 3 1 2 1 3 4 5 3 1 3 7 8 7 4 4 6 6 5 6 6 5 6 6 7 10 11 12 12 11 9 7 5 6 7 5 1 6 9 11 14 18 19 20 21 22 23 25 26 27 28 29 29 28 28 28 27 27 27 26 25 25 25 24 23 22 23 25 28 30 30 28 27 25 23 22 21 20 20 20 20 20
4 4 3 2 2 1 1 2 3 5 5 2 2 3 3 4 4 4 4 3 3 3 2 5 6 5 5 5 7 12 15 15 15 13 11 9 8 7 6 5 3 1 3 6 11 17 19 19 20 21 23 24 24 25 26 28 29 29 29 29 27 26 25 24 24 26 27 26 25 24 23 25 28 31 31 30 29 27 25 24 23 22 22 21 21 20
4 3 2 2 1 1 2 1 1 2 2 1 2 2 2 1 1 2 1 3 4 3 2 3 6 5 4 3 5 9 10 11 12 13 12 11 10 8 6 5 5 4 2 2 6 11 15 17 19 20 22 24 25 27 28 28 30 30 30 29 28 25 24 24 25 27 26 25 25 25 25 26 27 29 30 31 30 28 24 23 22 22 22 22 22 21
3 1 3 3 1 2 4 2 2 2 2 3 3 2 1 3 5 3 2 3 5 5 4 2 6 6 4 3 4 4 1 3 4 5 9 9 7 6 5 3 3 4 3 1 2 3 6 11 15 18 21 23 24 26 27 27 27 27 27 26 25 24 24 24 25 25 25 25 25 25 25 25 25 26 27 30 30 28 25 24 23 21 20 20 22 23
5 2 4 5 2 2 4 3 1 2 3 4 5 5 6 6 4 2 4 4 5 6 6 5 5 8 7 4 2 2 2 2 1 1 4 6 7 7 6 3 3 3 2 1 3 4 2 4 7 10 16 21 23 24 24 23 23 23 23 23 23 22 22 23 24 24 25 25 24 23 22 22 22 24 25 27 29 28 25 24 23 21 20 21 23 24
6 4 4 4 2 2 3 2 1 3 2 3 4 6 10 6 1 5 4 5 5 8 9 8 7 8 7 3 2 2 3 1 2 3 3 5 8 10 9 7 5 3 3 1 1 2 2 3 3 4 11 17 20 23 23 22 23 24 24 23 22 21 21 21 21 22 25 25 23 21 19 18 19 21 23 26 28 26 23 23 23 23 21 21 23 25
3 3 2 4 3 2 3 2 1 3 3 3 4 9 9 3 3 4 1 5 4 8 10 9 7 6 5 2 2 2 3 4 6 8 7 7 10 10 9 8 6 4 4 4 2 1 2 3 3 3 6 10 13 18 20 21 23 24 24 22 20 19 20 21 21 22 24 23 20 18 17 17 19 21 23 25 25 24 23 23 24 25 23 23 25 27
1 2 1 2 3 2 2 3 1 3 3 2 6 8 4 2 2 2 3 1 3 5 7 8 7 6 4 3 3 2 8 11 11 10 9 10 11 10 8 8 8 7 6 5 3 1 1 3 2 1 2 2 3 8 12 17 20 22 23 22 21 20 22 23 22 21 21 19 18 17 17 18 19 22 23 24 23 22 22 22 24 25 24 24 27 28
2 2 0 1 2 2 2 3 1 2 3 4 6 3 1 2 2 2 0 3 4 3 3 5 6 6 3 2 1 8 13 13 11 11 11 11 11 11 10 10 11 11 10 8 7 4 3 1 1 3 5 7 7 5 4 6 11 15 19 20 19 21 24 24 22 20 18 18 18 18 18 18 19 20 19 17 16 16 16 17 21 24 25 27 28 29
2 2 1 2 2 3 3 2 3 5 4 4 4 0 1 1 2 2 3 4 4 4 2 1 5 5 4 3 7 14 16 14 13 13 12 12 11 12 13 12 13 13 12 11 9 7 6 4 4 7 10 11 11 11 10 7 5 7 10 11 12 15 16 16 15 15 15 16 16 17 17 17 16 14 11 10 11 12 12 13 16 20 24 26 25 24
2 3 3 2 1 2 4 4 4 5 5 4 3 1 2 3 3 3 4 4 5 4 3 1 2 4 4 7 13 17 16 14 14 13 12 12 12 13 13 14 14 14 13 12 10 9 9 9 9 10 13 13 13 12 11 8 7 8 7 7 9 12 12 11 10 12 12 12 12 13 12 10 9 8 7 7 9 9 10 10 10 11 14 14 12 11
2 4 5 3 1 1 1 2 3 3 4 3 2 2 3 3 3 4 4 4 4 4 3 2 1 2 6 12 17 18 16 15 14 12 10 11 12 12 13 13 13 14 14 12 11 11 11 12 13 14 15 16 14 13 12 10 10 12 12 10 9 9 9 8 8 9 8 7 8 9 9 7 7 7 7 8 9 8 8 7 7 7 7 6 5 5
2 4 4 3 1 1 0 3 3 3 4 4 3 2 2 3 4 5 4 4 4 4 3 3 2 4 9 16 18 18 16 14 13 11 10 10 11 11 12 12 13 13 12 11 11 11 11 12 14 15 16 17 16 15 14 14 14 15 14 13 11 10 10 9 9 9 9 9 9 9 8 8 8 7 8 9 10 10 10 9 7 6 6 6 5 6
1 3 2 2 2 2 3 4 2 1 3 3 3 2 1 3 4 5 5 5 4 3 4 4 5 8 14 17 16 16 16 13 11 11 11 10 10 10 11 11 12 12 12 10 10 10 10 11 13 14 15 16 16 14 14 15 16 16 15 14 13 12 11 10 9 8 9 8 8 8 8 7 8 8 9 10 10 10 10 9 8 8 8 8 8 7
3 3 2 3 2 1 2 3 1 1 2 2 1 0 1 3 4 4 5 5 5 6 7 8 9 10 14 14 12 12 13 11 10 10 10 9 9 10 11 11 11 11 11 11 11 10 9 10 11 12 13 14 14 13 12 12 14 14 13 14 12 10 10 10 10 9 9 8 8 8 8 8 8 9 10 10 10 10 10 10 10 9 9 9 8 8
4 2 2 4 3 1 3 6 7 3 1 3 2 2 2 2 3 4 6 7 7 8 9 12 13 12 12 12 10 10 11 11 10 9 8 8 8 9 10 10 10 11 12 12 12 11 11 10 11 11 10 10 11 11 10 10 11 11 11 11 10 8 8 8 8 9 9 8 7 7 7 7 8 8 9 9 9 8 8 9 9 8 7 7 6 6
5 5 6 6 3 3 5 12 12 5 2 4 4 3 3 2 2 3 5 7 8 8 8 11 14 13 13 13 10 8 9 11 10 8 7 8 8 9 10 10 10 11 13 14 14 13 12 12 12 11 11 10 9 9 8 7 7 7 7 7 7 6 5 5 6 7 6 5 5 5 5 6 6 7 7 7 7 6 6 5 6 7 6 6 5 4
Wind_Direction
153 140 159 187 205 196 192 204 191 149 138 132 113 95 113 114 90 78 93 259 277 65 73 148 126 148 154 154 188 198 200 201 194 189 186 189 193 196 198 202 208 214 219 220 220 222 223 225 224 213 207 201 192 194 194 191 195 191 182 178 172 167 167 167 164 160 160 159 157 157 157 156 155 151 148 145 145 146 147 145 140 135 134 142 148 146
117 165 224 214 213 202 198 210 191 120 116 122 122 109 95 101 89 60 105 232 35 77 277 196 126 138 153 151 178 196 203 207 201 198 196 196 198 199 200 203 209 214 219 220 220 221 222 224 223 214 209 204 196 194 193 191 193 193 188 182 175 171 171 169 166 160 159 160 159 157 156 156 155 151 146 144 143 143 143 140 132 129 130 135 141 144
61 222 241 229 213 179 221 215 181 157 135 117 107 121 166 154 101 46 106 84 15 101 184 211 118 97 129 170 191 202 217 216 210 209 206 204 202 202 203 205 208 212 215 217 218 217 219 221 220 213 210 208 201 197 194 190 192 196 193 187 181 177 174 172 167 161 155 153 153 153 153 153 151 148 145 144 146 145 143 139 133 128 126 129 136 144
182 241 247 221 150 120 336 256 155 164 156 135 128 132 191 177 144 275 127 104 35 73 121 113 81 34 37 199 224 232 234 227 221 223 223 216 210 207 206 207 207 208 211 214 214 214 214 217 217 213 211 209 203 201 197 191 192 196 195 194 189 182 179 175 168 161 151 144 145 148 150 151 149 149 149 149 151 148 148 146 140 129 127 130 133 141
228 243 179 112 123 146 182 276 155 167 235 229 170 157 171 185 185 121 113 113 58 48 102 110 89 322 203 199 228 239 237 235 231 231 232 227 220 214 210 208 208 208 211 211 210 211 211 214 217 214 211 210 206 205 201 194 193 195 196 196 195 191 185 179 172 165 157 148 147 149 151 153 154 157 159 158 156 152 153 150 145 140 136 135 132 136
263 255 160 118 120 144 150 223 203 175 216 292 212 186 177 183 179 117 116 118 75 2 195 140 134 257 197 203 219 225 226 228 230 231 231 228 224 219 214 210 208 208 211 212 211 211 213 216 217 213 211 210 209 209 204 197 194 194 196 195 196 196 192 185 178 173 167 160 157 158 160 161 161 164 165 163 158 154 154 152 153 155 145 140 139 139
266 255 151 141 162 153 155 231 233 173 147 297 238 180 161 162 148 132 136 139 150 212 207 172 177 264 193 215 218 212 216 220 220 229 232 226 220 216 213 209 207 205 206 209 211 211 212 214 215 212 210 210 211 210 204 199 197 194 196 195 194 195 196 192 185 181 177 171 168 168 169 168 168 168 166 163 158 156 157 157 160 163 155 149 151 150
219 245 121 139 161 161 180 239 233 160 135 266 257 154 145 147 145 150 147 143 155 88 88 174 169 40 228 224 212 201 214 224 219 225 232 223 216 212 210 208 205 203 203 204 205 208 210 213 215 214 211 210 211 210 205 201 200 195 195 196 193 192 195 196 194 190 186 181 177 175 176 178 178 173 167 164 163 161 163 162 163 166 164 159 158 160
203 198 217 188 182 195 210 222 198 163 148 271 19 103 127 126 126 140 130 109 117 84 97 212 191 215 263 236 199 192 209 223 218 218 222 217 214 211 207 204 203 202 202 203 204 207 209 212 215 214 212 210 209 208 206 204 202 196 194 195 193 191 193 196 199 198 195 191 185 181 182 186 186 180 175 174 171 168 166 167 169 171 170 167 166 167
239 218 212 167 161 210 228 227 174 149 139 99 88 81 79 76 74 78 73 37 39 69 202 200 184 210 279 237 176 186 211 220 214 212 215 213 211 210 205 201 201 200 199 202 205 207 210 212 213 212 211 210 208 207 207 207 204 199 195 196 196 194 192 195 200 201 200 197 193 190 189 190 190 186 183 185 183 177 173 174 179 180 178 178 176 172
258 240 224 164 197 209 190 192 138 127 127 105 93 86 76 62 56 58 41 33 36 301 244 192 179 179 282 246 185 195 209 209 205 204 208 208 208 209 205 200 200 199 198 201 205 208 210 211 210 210 211 210 208 206 207 208 207 202 199 199 200 199 196 196 199 201 201 200 199 199 198 196 192 190 192 193 191 188 182 181 187 189 188 190 186 180
306 251 220 210 216 199 112 57 93 146 154 120 97 113 94 44 15 44 18 34 134 249 267 190 173 170 231 254 207 210 211 200 200 201 198 198 203 205 204 201 200 200 200 202 205 207 207 206 207 209 210 210 208 205 206 208 207 205 203 203 204 204 202 202 203 203 203 203 203 203 204 202 198 195 198 199 198 197 192 189 191 193 194 197 193 187
312 236 229 225 215 175 118 42 46 145 172 127 117 128 98 42 5 28 319 208 213 241 227 123 144 177 235 253 219 214 216 205 203 202 197 194 197 201 202 201 201 201 201 203 205 205 204 205 207 209 209 210 209 206 205 206 206 205 205 206 208 208 207 207 207 207 206 205 206 206 204 203 201 200 200 203 204 203 201 198 197 198 199 200 196 192
329 298 293 323 222 161 137 103 103 171 197 156 147 144 118 106 103 173 256 248 257 261 193 119 126 217 258 268 230 212 211 208 205 204 201 197 196 198 201 200 201 202 202 203 205 205 205 207 209 209 209 210 210 208 206 206 206 206 206 208 210 211 211 211 210 209 209 208 208 207 205 204 205 205 202 204 206 205 206 204 201 203 204 204 204 199
96 310 245 195 205 161 152 160 169 171 174 183 180 139 142 152 150 185 209 200 221 253 117 126 152 208 208 256 251 234 218 205 201 203 202 200 199 198 199 198 198 200 203 204 205 206 208 210 210 210 210 210 210 208 208 208 207 207 207 210 212 212 212 213 212 212 212 211 209 208 207 208 210 211 207 206 208 208 207 203 201 205 207 208 208 204
153 263 247 251 210 165 167 171 162 147 138 214 191 107 157 182 144 142 193 169 132 109 140 159 219 228 205 253 256 305 262 204 196 195 192 194 197 194 194 196 196 198 201 203 204 206 209 210 210 211 211 211 210 209 210 210 209 208 209 211 214 215 213 214 214 214 214 213 213 212 210 211 213 213 211 210 213 213 210 205 202 205 210 211 210 208
160 275 273 300 282 184 178 164 153 149 155 169 147 149 184 164 121 105 249 2 88 119 226 192 257 288 307 285 248 139 128 200 191 189 187 189 190 190 192 193 194 196 199 203 205 207 209 209 210 211 212 212 210 210 211 213 212 210 209 211 214 215 214 215 216 217 217 215 216 216 214 214 215 215 215 215 218 219 217 214 208 207 212 215 216 216
178 275 288 308 324 261 176 147 125 121 136 119 185 185 137 79 80 91 85 347 57 173 268 222 251 289 303 286 293 134 183 203 194 189 188 187 186 189 192 192 193 196 199 203 206 208 210 210 210 211 213 213 211 211 213 215 215 213 212 212 214 216 215 214 215 216 218 218 218 218 217 216 217 219 220 220 223 224 222 222 219 215 214 215 220 223
158 269 293 284 317 316 118 121 83 1 81 94 196 184 132 96 80 105 143 233 155 191 283 268 266 264 213 228 232 194 203 202 196 191 187 188 188 191 193 192 192 194 197 201 203 206 208 209 211 212 213 214 213 212 213 215 216 214 212 212 213 218 218 216 216 216 217 220 220 221 220 219 220 221 223 225 226 225 222 221 222 220 218 217 220 224
145 125 279 289 343 348 45 108 150 291 335 344 59 163 135 117 156 166 172 180 156 177 258 297 319 259 226 220 197 200 204 192 188 192 192 193 193 193 193 193 193 192 195 198 200 204 208 210 212 213 213 214 213 213 214 216 217 215 212 211 212 216 218 218 219 218 218 220 222 222 222 222 222 222 224 227 227 226 223 220 219 218 218 218 221 224
107 105 261 309 350 40 2 179 161 166 216 251 175 171 192 114 153 181 193 163 135 147 194 193 304 267 250 225 206 217 211 190 186 191 194 196 196 196 197 196 195 195 195 198 200 204 207 210 211 213 214 214 213 213 214 216 217 215 212 210 211 214 217 218 219 220 220 220 222 223 223 223 224 224 225 226 227 226 225 223 219 216 217 220 221 224
158 107 88 310 331 154 238 246 159 180 202 190 172 169 175 165 142 143 248 267 117 127 173 162 242 268 271 298 290 276 240 195 192 193 193 196 196 198 200 200 200 198 197 199 201 204 207 209 210 211 212 212 212 213 214 215 215 213 211 209 210 213 218 219 220 222 222 223 223 224 224 224 224 224 225 226 226 225 223 222 220 218 220 222 223 225
141 107 99 261 265 234 259 289 115 212 205 165 153 150 148 144 126 134 201 238 157 113 179 128 220 268 278 315 318 310 310 190 190 193 191 196 199 199 201 203 203 201 199 200 202 204 207 208 209 210 210 211 212 212 213 215 214 212 211 210 212 215 218 221 223 224 225 225 225 226 226 226 224 224 225 226 225 224 222 221 222 223 225 225 226 228
76 74 73 282 294 307 305 335 14 206 151 118 41 59 114 200 167 159 184 182 152 168 154 92 278 267 289 327 338 341 353 107 165 187 184 185 194 197 200 202 203 202 200 199 201 202 205 206 207 208 208 210 212 212 213 214 215 214 212 213 217 220 221 223 225 226 228 229 228 228 228 228 226 225 224 225 225 224 223 223 225 228 230 229 229 230
73 73 74 51 353 351 347 357 1 351 25 62 353 4 357 289 146 163 153 80 114 199 153 118 245 259 285 340 3 9 27 78 116 164 175 177 182 189 196 199 199 200 198 197 198 199 202 204 205 206 208 210 211 211 211 213 215 216 215 216 219 222 226 227 228 227 229 231 231 229 229 230 228 226 225 226 226 226 225 226 228 230 232 232 231 232
102 133 109 108 109 99 16 334 308 305 324 342 352 346 339 13 99 169 140 93 165 225 151 151 215 260 304 357 20 15 24 50 73 121 153 169 176 182 188 191 193 196 196 195 195 197 200 202 204 206 208 210 211 211 211 213 215 215 216 218 220 222 225 227 229 229 229 231 231 230 230 230 229 228 228 229 229 228 228 229 230 229 230 231 231 232
92 90 85 115 132 157 187 226 266 298 41 0 341 341 351 10 64 119 109 137 192 181 190 230 217 324 339 354 15 6 15 34 53 100 130 153 169 178 183 185 188 190 193 194 193 194 197 199 202 205 207 210 212 212 213 214 215 216 216 218 219 221 223 225 227 229 230 232 232 231 231 230 228 228 229 231 232 231 231 232 232 228 227 228 230 232
93 73 59 103 98 107 202 240 304 24 75 44 360 359 5 11 38 79 93 269 236 141 236 292 339 31 339 339 3 356 12 33 44 82 128 155 167 175 178 179 179 179 183 189 190 192 193 196 200 203 206 210 212 214 216 217 219 219 219 221 222 222 223 224 224 225 229 233 234 233 231 230 228 227 228 230 232 233 234 235 234 232 229 229 231 234
108 113 212 117 64 11 7 1 3 42 82 59 37 20 14 24 40 58 52 318 352 141 231 289 21 53 339 331 356 7 41 63 68 84 129 163 170 175 176 176 176 172 171 177 183 188 192 194 196 200 205 208 211 215 217 218 222 222 222 225 227 227 226 224 223 224 227 231 235 235 234 231 229 227 227 229 230 231 232 233 233 233 231 231 234 237
98 152 237 110 70 20 359 33 74 86 63 49 41 27 26 40 46 50 30 352 28 124 198 340 74 63 11 343 21 52 82 84 84 91 117 156 171 177 177 177 184 187 185 186 187 189 194 197 197 197 202 208 212 217 218 221 225 225 225 227 228 228 227 225 226 227 228 230 232 234 235 233 230 228 228 230 231 231 232 231 230 230 231 233 236 237
72 117 311 70 69 347 316 325 76 85 93 65 41 26 27 41 43 39 26 9 19 38 354 39 74 56 27 57 67 72 82 79 77 77 84 126 170 188 189 185 190 197 199 201 204 204 206 211 209 204 206 212 216 218 221 226 229 227 227 227 227 228 226 224 225 226 229 232 231 232 234 233 230 228 228 230 230 229 230 230 229 230 231 234 235 235
62 99 36 69 90 286 305 323 341 24 73 50 31 19 13 27 37 31 32 33 20 337 339 37 73 23 5 70 78 75 75 74 71 68 68 85 138 177 192 196 198 203 202 203 210 215 216 219 219 215 214 217 219 220 221 225 228 230 231 229 227 228 226 223 224 224 227 232 232 231 232 233 232 230 228 228 227 225 226 226 227 229 232 234 235 235
80 128 138 118 145 219 277 314 332 25 37 5 354 0 10 42 63 40 36 31 14 349 346 57 96 229 43 86 92 87 80 76 73 72 75 80 94 135 180 199 207 213 210 205 208 214 216 218 220 219 219 222 224 227 229 231 234 236 236 233 229 228 226 224 226 228 228 230 232 231 231 235 237 233 227 225 223 221 219 221 224 227 230 233 234 235
80 116 142 124 147 209 266 312 335 27 31 268 259 259 156 108 100 86 49 5 1 24 69 94 105 113 101 96 103 97 84 81 82 81 84 85 83 88 103 152 226 231 223 215 215 216 218 221 223 224 225 225 227 230 233 236 239 240 238 234 230 229 229 227 230 235 235 232 233 232 232 234 236 235 230 223 219 218 217 219 223 226 229 231 232 235
93 98 115 95 123 180 269 15 249 250 240 232 263 330 127 122 110 100 75 9 0 20 48 77 88 101 111 116 119 111 104 102 100 92 84 80 78 76 77 79 249 245 226 216 222 226 226 227 228 228 228 227 227 227 226 228 234 237 235 232 231 233 232 231 234 240 240 236 234 234 234 233 232 234 235 228 220 218 217 218 222 226 231 233 233 234
131 129 126 90 102 152 81 99 196 237 257 268 4 43 95 91 78 78 49 359 337 350 38 95 97 93 97 102 120 125 123 114 98 80 70 71 73 72 75 78 73 244 220 217 228 231 230 230 230 227 227 227 225 224 223 225 229 232 233 235 238 239 236 233 234 238 239 239 237 234 234 235 232 236 242 237 227 222 219 217 219 224 233 238 237 236
124 137 115 78 74 142 118 123 254 292 299 311 14 51 104 346 307 135 101 290 266 260 244 134 115 98 76 82 127 141 133 106 79 59 51 57 62 62 65 69 71 81 105 202 234 235 232 233 234 231 229 230 227 226 226 225 226 229 234 238 239 238 237 236 235 235 237 241 242 239 238 239 238 241 246 244 235 228 225 225 225 229 237 242 241 239
77 146 150 139 132 98 95 67 11 350 257 241 260 268 302 299 267 197 137 286 262 237 234 184 129 127 140 152 165 184 169 63 53 34 38 48 53 57 62 57 63 81 96 150 265 272 246 235 237 237 234 233 231 230 228 226 226 228 230 231 231 231 234 238 236 235 237 241 245 245 243 242 242 242 245 247 242 235 233 235 236 235 238 240 241 242
36 40 103 106 88 92 106 108 146 197 235 242 240 270 328 325 272 154 76 320 262 207 205 204 157 150 164 191 273 316 27 27 299 308 32 46 57 62 63 61 65 85 99 273 309 347 335 248 242 242 237 234 232 230 227 222 221 224 225 227 232 233 235 239 239 237 238 241 243 243 241 242 242 240 244 250 248 242 240 242 241 238 239 241 240 242
16 15 58 84 96 115 109 111 194 214 246 238 235 292 324 324 143 95 54 291 236 184 189 197 176 163 168 188 315 14 59 2 230 164 97 70 70 68 64 63 65 84 109 128 300 347 327 272 272 249 232 231 232 232 227 220 219 224 228 231 236 237 236 235 234 233 237 240 241 240 240 242 244 242 245 249 248 244 241 243 243 243 246 248 247 246
7 9 52 110 121 106 108 125 246 258 243 237 282 311 323 339 99 96 208 240 185 160 179 188 180 179 182 194 327 20 89 116 134 131 112 87 80 73 67 68 70 84 108 122 150 186 221 244 270 254 222 222 229 232 228 224 224 228 231 233 235 234 230 228 229 235 240 241 240 241 243 244 242 240 240 242 245 247 247 248 250 251 250 247 244 241
31 26 23 100 107 93 114 119 322 278 243 280 315 319 331 114 147 197 221 240 75 120 165 179 182 187 201 252 301 103 120 122 126 123 108 95 92 88 82 79 77 80 86 95 109 128 226 237 234 218 181 174 212 224 222 221 223 226 231 235 235 232 230 229 232 238 241 238 236 238 242 243 241 239 239 240 244 248 250 249 249 248 244 239 235 232
155 116 348 198 148 115 81 73 75 229 247 333 338 325 129 142 224 246 43 37 34 60 138 183 197 194 201 254 179 134 133 129 124 117 109 106 104 96 86 75 71 72 69 68 69 58 27 7 107 87 74 69 69 82 136 192 210 218 225 227 226 227 230 231 231 234 235 235 236 238 238 238 236 235 237 239 238 238 240 241 240 238 234 232 231 229
177 145 193 236 175 119 117 157 200 221 262 341 356 210 178 336 321 341 17 15 8 14 36 209 220 214 214 202 153 142 138 130 122 117 112 108 99 88 81 75 72 70 66 66 71 67 57 58 69 70 69 67 67 73 81 89 118 175 202 205 197 202 209 212 214 219 220 222 227 230 229 226 223 221 221 218 214 217 226 234 235 229 224 222 220 219
216 181 161 168 173 162 184 213 244 266 293 336 3 12 8 351 330 324 328 342 358 7 13 4 231 215 201 179 157 145 138 131 123 117 111 103 91 81 78 76 70 65 61 63 71 74 75 79 82 80 77 72 66 69 75 80 97 124 143 151 158 170 177 180 187 199 204 206 209 212 214 207 193 187 181 173 179 196 212 221 220 213 207 203 199 202
198 158 133 126 210 259 239 264 301 317 323 337 348 358 10 358 334 335 330 330 348 1 7 21 78 177 176 170 159 146 139 135 126 119 113 102 88 79 76 70 64 61 60 62 68 70 74 81 85 85 84 77 70 71 79 90 103 111 114 117 124 138 149 153 160 174 182 177 169 173 176 160 142 140 137 138 148 157 165 175 181 181 182 179 171 177
212 154 121 96 90 96 283 295 319 339 330 337 350 348 2 14 2 3 1 349 351 8 30 58 99 153 165 166 159 148 140 134 125 121 116 100 86 79 72 62 57 56 59 65 68 66 68 77 82 85 85 81 76 77 85 95 101 103 107 111 111 112 121 131 137 141 140 136 133 136 135 126 124 131 135 138 143 146 147 150 155 160 164 159 150 152
179 138 117 99 100 140 226 262 296 348 307 324 359 352 4 40 29 24 27 23 32 65 78 86 117 152 162 162 157 148 140 132 125 125 115 98 87 78 67 59 52 51 59 69 72 68 67 71 77 82 85 84 84 84 87 92 95 94 96 98 100 103 110 117 123 124 120 116 113 110 111 115 120 127 132 135 137 140 142 142 140 139 137 132 128 127
126 124 145 124 95 31 262 250 218 43 302 292 341 66 67 54 43 46 53 57 77 96 101 107 121 147 159 156 150 146 141 132 127 123 109 94 87 77 65 58 56 59 67 74 75 74 73 71 72 76 80 84 89 92 93 93 94 94 93 92 93 97 102 106 110 110 108 107 108 107 110 114 116 119 123 126 128 131 131 128 126 126 124 121 118 113
121 139 153 106 93 287 238 189 170 156 264 234 185 120 110 87 54 56 64 74 92 102 107 116 122 135 148 144 137 141 138 126 118 112 97 86 85 75 60 55 61 68 70 69 70 73 73 73 72 71 72 78 87 95 100 101 100 101 101 102 104 106 103 106 113 116 114 115 117 117 115 114 116 118 119 119 118 117 121 124 125 124 122 120 121 119
156 177 174 149 160 240 197 173 168 158 153 172 152 111 117 119 74 63 69 81 98 105 106 117 125 133 140 137 130 134 129 114 109 107 95 89 87 73 59 59 69 74 71 67 67 68 69 71 72 70 70 73 79 87 98 105 109 111 112 117 123 126 125 125 132 134 130 129 134 134 127 125 126 123 120 119 113 104 102 115 129 134 135 133 131 130